SCP
1 1 1 1 1 2 2 1 1 1 1 1 1 1 1 0 0 0 0 0 0 0 0 0 0 0 0 0 0 0 0 0 0 0 0 1 1 1
1 1 1 1 2 2 2 1 1 1 1 1 1 1 1 0 0 0 0 0 0 0 0 0 0 0 0 0 0 0 0 0 0 0 0 0 1 1
1 1 1 1 2 2 1 1 1 1 1 1 1 1 0 0 0 0 0 0 0 0 0 0 0 0 0 0 0 0 0 0 0 0 0 0 0 0
0 1 1 1 1 1 1 1 1 1 0 1 1 0 0 0 0 0 0 0 0 0 0 0 0 0 0 0 0 0 0 0 0 0 0 0 0 0
0 0 1 1 1 1 1 1 1 0 0 0 0 0 0 0 0 0 0 0 0 0 0 0 0 0 0 0 0 0 0 0 0 0 0 0 0 0
0 0 0 1 1 1 1 1 1 0 0 0 0 0 0 0 0 0 0 0 0 0 0 0 0 0 0 0 0 0 0 0 0 0 0 0 0 0
0 0 0 0 0 0 1 1 0 0 0 0 0 0 0 0 0 0 0 0 0 0 0 0 0 0 0 0 0 0 0 0 0 0 0 0 0 0
0 0 0 0 0 0 0 0 0 0 0 0 0 0 0 0 0 0 0 0 0 0 0 0 0 0 0 0 0 0 0 0 0 0 0 0 0 0
0 0 0 0 0 0 0 0 0 0 0 0 0 0 0 0 0 0 0 0 0 0 0 0 0 0 0 0 0 0 0 0 0 0 0 0 0 0
0 0 0 0 0 0 0 0 0 0 0 0 0 0 0 0 0 0 0 0 0 0 0 0 0 0 0 0 0 0 0 0 0 0 0 0 0 0
0 0 0 0 0 0 0 0 0 0 0 0 0 0 0 0 0 0 0 0 0 0 0 0 0 0 0 0 0 0 0 0 0 0 0 0 0 0
0 0 0 0 0 0 0 0 0 0 0 0 0 0 0 0 0 0 0 0 0 0 0 0 0 0 0 0 0 0 0 0 0 0 0 0 0 0
0 0 0 0 0 0 0 0 0 0 0 0 0 0 0 0 0 0 0 0 0 0 0 0 0 0 0 0 0 0 0 0 0 0 0 0 0 0
0 0 0 0 0 0 0 0 0 0 0 0 0 0 0 0 0 0 0 0 0 0 0 0 0 0 0 0 0 0 0 0 0 0 0 0 0 0
0 0 0 0 0 0 0 0 0 0 0 0 0 0 0 0 0 0 0 0 0 0 0 0 0 0 0 0 0 0 0 0 0 0 0 0 0 0
0 0 0 0 0 0 0 0 0 0 0 0 0 0 0 0 0 0 0 0 0 0 0 0 1 0 0 0 0 0 0 0 0 0 0 0 0 0
0 0 0 0 0 0 0 0 0 0 0 0 0 0 0 0 0 0 0 0 0 0 0 0 0 1 0 0 0 0 0 0 0 0 0 0 0 0
0 0 0 0 0 0 0 0 0 0 0 0 0 0 0 0 0 0 0 0 0 0 0 0 0 0 0 0 0 0 0 0 0 0 0 0 0 0
0 0 0 0 0 0 0 0 0 0 0 0 0 0 0 0 0 0 0 0 0 0 0 0 0 0 0 0 0 0 0 0 0 0 0 0 0 0
0 0 0 0 0 0 0 0 0 0 0 0 0 0 0 0 0 0 0 0 0 0 0 0 0 0 0 0 0 0 0 0 0 0 0 0 0 0
0 0 0 0 0 0 0 0 0 0 0 0 0 0 0 0 0 0 0 0 0 0 0 0 0 0 0 0 0 0 0 0 0 0 0 0 0 0
0 0 0 0 0 0 0 0 0 0 0 0 0 0 0 0 0 0 0 0 0 0 0 0 0 0 0 0 0 0 0 0 0 0 0 0 0 0
0 0 0 0 0 0 0 0 0 0 0 0 0 0 0 0 0 0 0 0 0 0 0 0 0 0 0 0 0 0 0 0 0 0 0 0 0 0
Wind_Speed
2 2 2 2 2 1 1 1 1 1 1 1 1 1 1 2 1 1 2 4 4 4 4 4 3 3 3 3 3 3 3 3 4 5 5 5 6 6
2 2 2 2 2 2 1 1 1 1 1 0 1 1 1 1 1 1 2 5 5 5 5 4 3 2 3 2 2 3 3 4 5 6 6 6 7 7
3 3 3 3 2 2 1 1 1 0 0 0 0 1 1 0 0 1 2 3 3 6 6 5 3 3 3 2 2 2 3 4 5 6 6 6 7 7
4 3 3 3 3 2 2 1 1 0 1 0 0 0 1 1 1 1 1 2 3 6 7 6 5 4 4 3 3 4 4 4 4 5 6 6 6 6
4 4 3 3 3 2 2 1 1 1 1 1 1 0 1 1 1 1 1 0 2 5 7 6 6 6 5 4 4 4 5 5 5 5 5 5 6 6
3 3 3 3 3 3 2 2 1 1 1 0 0 0 0 0 0 1 1 1 1 2 4 5 6 7 6 5 5 5 6 6 6 6 6 6 6 7
3 3 3 3 3 3 2 2 2 1 1 0 0 0 0 0 0 1 0 0 1 1 1 2 3 3 4 5 7 7 7 7 7 7 7 7 7 7
3 3 2 2 3 3 3 2 2 2 1 1 0 1 1 0 0 1 0 0 1 1 1 1 2 3 3 3 7 9 9 8 8 8 8 7 7 7
3 3 3 4 5 4 3 3 2 2 2 2 1 2 1 1 1 1 1 1 2 2 1 1 1 2 2 3 7 10 10 10 9 9 8 8 8 8
2 3 3 3 5 5 4 3 2 2 2 1 2 2 1 1 1 1 1 2 2 2 1 1 1 1 2 1 6 10 10 10 10 10 9 9 9 9
2 3 3 3 5 6 3 3 3 2 2 1 1 1 2 2 2 1 1 1 1 1 1 1 1 1 1 2 3 8 10 10 10 10 11 10 11 9
1 1 3 3 4 5 3 2 3 3 3 3 1 1 2 3 5 4 3 1 1 1 1 1 1 1 2 2 2 2 5 8 10 11 11 12 11 6
2 1 2 2 4 4 3 2 2 3 2 2 1 1 1 1 2 3 3 2 1 2 2 1 1 2 2 2 2 3 3 3 4 6 10 13 13 9
3 2 2 2 4 5 4 3 5 5 2 2 1 1 0 0 1 2 3 3 3 3 3 2 1 2 2 2 3 2 3 4 4 4 5 8 10 13
2 3 3 4 5 4 4 5 4 2 1 1 1 1 1 1 1 1 2 3 3 4 4 3 3 3 2 3 3 3 3 3 4 4 4 4 5 5
3 4 5 7 6 5 4 3 3 3 2 1 1 1 1 1 1 2 2 2 1 2 4 4 4 4 3 4 4 4 3 3 4 4 4 4 4 5
4 3 3 3 3 3 3 3 3 2 2 2 2 1 1 1 2 2 2 2 2 2 3 3 4 4 5 4 4 4 4 4 4 4 4 4 4 5
3 3 4 3 2 2 2 2 1 1 2 2 2 2 2 2 2 3 3 3 3 3 3 3 2 2 3 4 6 6 5 4 4 4 4 4 5 5
3 5 4 3 2 2 2 2 1 1 2 2 2 2 2 2 3 3 3 3 3 3 3 3 3 3 3 4 5 6 5 4 4 4 4 5 5 5
5 5 4 3 3 3 2 2 2 2 2 2 2 2 2 3 3 3 3 3 3 3 3 3 3 3 4 5 4 4 7 5 4 4 5 5 5 6
4 4 4 3 3 3 2 2 2 2 2 2 2 3 3 3 3 4 3 5 4 4 4 4 4 5 4 3 3 4 4 7 7 5 5 4 4 4
5 4 3 3 3 3 3 2 2 2 2 2 3 3 3 3 4 5 4 4 4 4 4 4 4 3 3 4 5 5 5 4 6 10 9 6 3 4
4 4 3 3 3 3 3 3 3 2 2 2 2 2 3 3 3 4 4 5 4 5 5 4 3 3 4 5 5 5 6 5 4 3 4 7 10 13
Wind_Direction
333 342 339 326 318 315 296 227 228 257 285 1 25 22 38 74 123 147 122 132 132 132 127 122 122 123 125 130 139 151 173 194 202 206 212 216 215 216
333 340 339 333 337 337 336 319 289 233 254 303 356 35 39 31 132 113 127 145 152 153 149 148 153 156 153 150 156 172 192 210 216 218 221 224 222 224
352 2 355 346 348 335 334 323 338 15 165 28 49 72 61 332 191 169 168 165 163 173 170 171 173 170 170 172 177 193 209 214 213 218 222 218 221 227
357 359 351 356 360 355 349 353 358 307 138 152 263 237 242 220 206 207 205 177 160 172 179 181 183 186 189 197 205 210 212 216 215 216 218 218 222 228
3 359 356 3 2 358 351 1 345 2 59 173 247 233 259 232 189 245 236 137 186 168 180 192 196 194 197 209 215 219 221 222 222 221 220 219 223 229
9 5 3 10 4 349 354 3 355 341 309 206 212 188 245 242 181 228 240 221 237 179 176 182 186 195 207 214 216 221 228 229 226 224 224 225 227 230
4 14 22 25 14 346 346 343 334 314 311 307 185 144 253 159 224 266 235 284 282 237 178 186 171 186 206 223 223 225 225 226 227 227 227 228 228 228
359 2 10 25 16 349 326 305 300 298 287 278 270 206 222 209 257 240 184 298 289 251 172 245 181 188 204 202 208 211 215 220 223 225 223 222 224 227
356 349 357 13 12 354 327 286 269 273 243 236 240 253 219 205 192 224 223 276 267 256 209 236 226 213 219 213 196 201 207 211 216 218 219 221 225 231
4 8 10 16 11 356 332 351 6 356 315 253 246 251 229 191 216 234 235 259 263 260 214 224 244 232 244 210 203 203 210 214 219 223 226 228 231 233
7 15 18 27 8 357 351 355 1 3 1 11 320 251 230 223 208 175 244 251 286 278 215 207 249 261 254 241 221 211 216 221 226 230 233 236 238 239
341 40 42 27 8 1 355 353 355 358 359 356 348 261 225 222 216 203 217 229 285 289 243 237 263 276 279 249 234 223 227 235 237 240 240 241 241 237
335 4 50 33 15 2 352 337 322 322 319 310 295 265 205 191 193 201 210 216 240 264 248 214 254 264 259 269 251 225 221 230 230 241 242 243 241 226
342 7 47 11 347 334 324 310 318 325 305 301 314 5 10 220 210 218 223 236 233 236 250 237 233 252 276 281 277 250 235 232 228 233 234 239 240 235
324 324 316 304 309 304 283 286 298 290 290 319 355 350 256 239 229 249 256 250 253 251 245 226 219 229 240 259 269 269 267 252 235 236 236 231 231 229
292 289 278 270 266 268 282 273 248 249 252 260 278 272 275 259 235 236 245 251 256 264 252 234 228 229 243 256 256 265 261 254 251 244 243 246 239 230
330 291 270 261 250 240 242 241 232 223 229 233 235 249 260 262 266 258 245 247 252 256 254 245 228 220 226 236 255 261 260 257 252 250 249 258 255 249
332 291 280 266 269 270 261 248 239 235 245 252 243 240 248 254 259 258 250 248 254 257 258 254 245 246 250 249 234 247 256 257 256 251 247 258 263 257
272 270 271 275 275 275 271 264 260 254 259 258 262 265 264 262 263 262 260 258 259 259 259 255 248 250 268 276 267 236 245 258 260 260 255 254 261 261
240 252 257 254 253 258 263 260 260 264 259 266 274 279 279 278 277 275 275 275 274 275 273 265 254 248 253 266 273 265 244 246 255 260 264 263 259 263
256 250 253 254 253 254 253 245 238 247 253 256 261 267 273 278 282 283 282 284 279 273 275 273 260 254 250 261 275 269 254 237 237 247 264 274 278 281
267 269 266 258 259 260 256 248 248 246 248 251 259 261 265 269 274 277 280 278 272 270 274 271 267 260 260 269 275 276 273 270 258 259 262 251 249 266
252 262 266 259 252 250 255 261 265 265 259 263 272 272 276 279 278 278 281 284 286 288 285 280 278 276 275 271 277 281 289 292 291 286 275 270 260 259